Temperature
15 15 16 16 16 13 12 13 13 15 12 14 14 13 14 14 14 14 13 12 11 11 12 11 11 12 11 12 13 13 13 13 13 13 13 13 13 12 12 12 13 13 12 11
16 17 16 15 16 15 13 13 12 13 13 15 14 14 14 14 14 14 13 12 12 11 11 11 11 11 12 13 12 12 12 12 12 13 13 13 12 12 12 12 12 12 12 12
14 16 16 14 16 16 15 14 13 13 15 14 13 11 12 15 15 15 14 12 11 11 12 11 11 12 12 12 11 12 12 12 12 12 12 13 12 12 12 12 12 12 12 12
13 14 13 16 16 16 15 15 14 14 13 12 13 15 15 16 16 15 14 13 12 11 11 11 11 11 11 12 12 12 12 12 12 12 12 12 12 12 12 12 12 12 11 12
12 13 14 15 17 16 16 16 16 14 14 14 14 13 15 17 16 16 15 13 12 12 11 11 11 11 11 11 12 12 12 12 12 11 11 11 11 12 12 12 11 11 11 11
12 12 13 15 17 17 16 15 17 15 14 13 12 13 15 18 17 16 15 14 13 12 11 11 11 11 11 11 11 11 11 11 11 11 11 11 11 11 11 11 11 11 11 11
12 12 13 15 16 17 15 15 18 17 17 14 13 16 18 17 17 16 15 14 13 12 11 11 10 10 10 10 10 11 11 11 10 10 10 10 10 10 11 11 11 11 11 11
12 12 12 16 16 14 15 17 18 18 18 17 18 19 18 17 16 15 15 14 13 12 11 11 10 10 10 10 10 10 10 10 10 10 10 10 10 10 10 11 10 10 10 10
13 13 15 17 17 17 17 17 18 18 18 18 18 19 18 17 16 16 15 14 13 12 11 11 11 11 11 10 10 10 10 10 10 10 10 10 10 10 10 10 10 10 10 10
12 13 14 16 16 17 17 17 17 18 18 17 17 18 18 17 16 16 15 14 13 12 11 11 11 11 11 10 10 10 9 9 9 9 9 9 10 10 10 10 9 9 10 10
11 13 14 16 16 17 17 17 17 18 18 18 18 18 18 18 17 16 15 14 13 12 12 11 11 11 11 10 10 9 9 8 8 9 9 9 9 9 10 10 10 10 10 9
14 15 15 15 16 17 16 17 17 17 18 18 18 18 18 18 17 16 15 14 13 12 12 12 11 11 11 10 10 9 9 8 8 8 8 9 9 9 9 10 9 9 9 9
13 14 14 15 15 16 16 17 18 18 18 18 18 19 18 18 18 17 15 14 14 13 12 12 11 11 11 10 10 9 9 9 8 8 8 8 9 9 9 9 9 9 8 8
12 12 12 13 12 14 14 15 15 15 17 18 18 19 18 18 17 17 16 15 14 14 13 12 12 11 11 10 10 9 9 9 9 8 8 8 8 8 9 9 9 9 9 9
11 11 10 10 11 11 12 13 13 13 16 17 18 19 18 18 17 18 17 16 15 14 14 13 12 11 11 10 10 9 9 9 9 9 8 8 8 8 8 9 9 9 9 9
10 10 10 10 10 10 10 9 10 10 11 13 15 16 17 17 17 18 17 16 15 14 14 13 12 11 11 10 10 9 9 9 9 9 9 9 8 9 9 9 9 9 9 9
9 9 9 10 10 11 10 9 8 9 8 9 10 11 14 15 16 17 17 17 16 15 15 14 13 11 11 10 10 10 9 9 9 9 9 9 9 9 9 9 9 9 10 10
9 9 10 10 10 10 10 9 8 8 8 8 8 9 11 12 14 17 17 17 17 16 15 14 13 12 11 11 10 10 9 9 9 9 10 10 10 10 10 10 10 10 10 10
9 10 9 10 10 10 10 10 9 9 9 8 7 7 8 10 13 15 17 18 16 16 15 15 14 12 12 11 11 10 10 10 9 10 10 10 10 10 10 10 10 10 10 10
8 8 9 9 9 9 9 10 10 10 9 8 8 8 7 8 9 12 13 14 17 17 16 15 14 13 12 11 11 11 11 10 10 10 10 10 10 11 10 10 10 11 11 11
7 7 7 7 8 8 8 9 9 9 9 9 9 9 8 7 7 9 11 13 14 16 15 15 15 14 13 12 11 11 11 11 11 11 11 11 11 11 11 11 11 11 11 11
5 5 5 5 6 6 7 7 8 9 9 9 8 8 9 8 7 8 10 11 13 13 14 15 15 15 14 13 12 11 11 11 11 11 11 11 11 11 11 11 11 11 11 11
4 4 3 3 3 4 5 6 7 8 8 9 9 9 9 9 8 8 9 11 12 12 12 12 14 15 14 14 13 12 12 11 11 11 11 11 11 11 11 11 11 11 11 11
3 2 2 2 2 3 3 5 6 7 7 8 8 8 9 10 10 9 10 11 12 13 13 12 12 13 14 13 13 13 13 12 12 12 12 12 12 12 12 12 12 12 11 11
4 4 3 3 2 2 3 4 5 5 6 7 8 8 9 10 10 11 10 11 12 13 13 13 12 12 12 12 12 12 13 13 13 13 12 12 12 12 12 12 12 11 11 11
5 4 4 4 3 3 3 4 4 4 5 6 8 9 9 9 10 10 11 11 11 12 12 12 12 12 11 12 12 12 12 13 13 13 13 13 13 12 12 12 12 12 11 11
5 4 3 3 3 3 3 4 4 4 4 4 5 6 7 8 9 10 10 11 11 12 11 11 11 11 11 11 11 11 12 12 12 13 13 13 13 13 12 12 12 12 12 11
Wind_Speed
6 7 5 7 8 7 9 10 10 12 11 16 13 8 7 7 8 7 7 5 6 5 4 3 2 4 9 2 4 5 4 4 3 4 5 5 7 9 8 7 7 6 6 6
4 7 7 8 11 9 9 7 10 10 13 15 10 5 7 8 8 7 6 5 8 7 7 7 7 6 3 4 3 3 3 2 4 4 4 5 6 8 7 7 7 7 7 7
5 3 4 8 9 7 7 9 9 10 13 6 6 8 9 9 8 8 6 6 8 7 7 7 7 6 3 0 2 2 4 2 3 4 4 5 8 9 8 6 6 7 6 6
2 1 5 9 4 6 7 10 12 11 11 9 9 6 7 8 7 8 7 7 8 7 7 6 4 2 2 1 1 3 5 4 3 4 5 6 8 9 7 6 7 6 5 5
2 5 8 7 8 5 6 13 10 10 14 7 3 2 8 10 10 11 7 7 7 7 6 5 4 2 2 2 2 4 3 4 4 4 6 7 5 4 4 5 5 5 6 6
2 4 7 7 7 3 3 9 7 8 12 5 7 3 11 9 6 7 8 7 7 7 6 5 4 3 3 4 5 5 4 4 4 4 5 5 5 2 2 5 6 7 7 6
5 7 8 8 4 2 4 10 5 5 8 8 9 12 7 2 2 3 6 8 8 8 7 6 4 4 5 5 5 5 4 3 3 4 4 4 4 2 4 8 9 8 8 6
3 5 7 4 1 4 8 6 6 8 11 11 13 11 7 5 5 5 7 8 9 8 7 5 5 6 6 5 4 4 4 4 4 5 5 3 4 4 6 10 10 7 8 6
7 9 10 9 10 12 9 11 14 12 16 13 11 11 10 7 8 8 9 9 9 9 8 6 6 7 7 6 5 5 6 5 4 4 4 4 4 4 6 8 8 7 7 6
10 15 14 14 15 16 14 12 14 13 13 9 13 13 10 8 8 8 9 9 9 9 8 8 8 8 7 5 6 6 6 5 4 4 4 4 4 4 5 7 7 5 6 6
9 14 15 17 13 14 13 11 11 13 10 12 14 15 12 9 10 10 10 9 9 10 10 11 10 9 8 8 9 9 8 7 5 4 4 4 4 2 4 5 8 8 7 7
15 20 15 14 18 16 12 12 13 12 10 12 14 16 12 11 11 11 11 10 10 11 12 11 9 9 9 10 11 10 9 8 7 6 5 4 4 5 7 4 7 9 11 9
11 15 15 18 20 20 18 18 18 14 14 14 13 15 14 12 12 13 12 12 14 14 14 12 11 11 10 11 12 11 10 9 8 7 6 5 4 6 6 6 8 8 11 11
10 11 11 13 17 18 17 15 17 15 15 14 14 13 14 13 12 14 16 17 16 13 12 12 12 13 12 12 12 11 9 10 9 9 8 7 6 6 6 7 6 4 4 4
15 11 9 13 16 17 16 15 15 16 15 15 13 13 15 16 17 19 18 15 12 12 12 13 14 13 13 14 13 12 10 8 8 8 8 8 7 7 6 5 5 4 3 2
18 17 14 11 12 14 18 20 19 19 18 14 9 8 12 15 16 15 15 15 15 15 16 15 15 14 14 15 14 11 10 11 10 8 8 8 7 8 7 7 6 6 6 5
22 19 17 15 13 10 12 14 16 18 19 20 18 14 9 15 15 15 17 19 20 18 17 17 16 14 15 16 15 12 10 11 11 9 8 8 9 9 9 8 8 8 8 7
15 16 17 15 14 11 8 8 10 13 15 19 21 22 17 16 21 20 18 18 17 16 15 16 15 15 15 16 15 12 11 11 11 11 10 9 9 9 9 9 10 10 9 7
20 20 20 18 16 12 7 5 5 7 10 11 16 21 22 16 12 11 12 17 18 17 17 18 21 20 17 18 16 12 12 13 12 11 10 10 9 8 8 8 9 10 10 8
18 21 21 21 20 16 11 9 8 7 6 5 7 12 20 20 15 6 5 10 15 18 18 20 22 20 18 19 19 14 14 15 14 13 12 11 10 9 9 10 9 9 9 9
18 18 20 21 21 19 15 14 13 10 5 5 3 3 8 17 17 9 5 11 14 12 12 19 20 18 17 18 19 16 15 15 15 14 13 12 12 11 10 10 10 10 10 10
15 16 18 21 22 21 17 15 16 14 8 9 7 4 3 8 18 16 10 9 11 10 11 12 16 20 21 21 18 17 16 15 14 14 13 12 12 12 12 11 11 11 11 11
16 17 20 22 21 20 20 19 17 16 13 11 11 10 7 6 5 11 14 15 11 13 13 14 18 23 25 20 17 18 18 17 15 14 14 14 14 13 12 13 12 12 11 11
16 19 23 24 22 20 19 19 17 13 12 12 10 10 10 8 7 9 13 17 12 12 13 14 18 22 22 17 16 17 17 17 17 15 14 14 13 12 12 11 11 11 12 12
12 15 17 19 18 17 18 17 16 13 11 11 13 10 9 8 7 8 8 11 13 10 10 14 18 19 18 16 17 17 17 16 17 16 15 13 13 12 12 12 11 11 12 12
15 15 15 17 16 16 15 13 10 10 10 12 14 12 9 8 7 5 7 9 9 4 5 6 8 10 13 16 18 19 18 19 18 17 17 16 15 14 13 13 13 12 11 11
17 18 15 16 15 13 13 13 11 10 12 12 13 13 10 9 8 7 7 8 7 6 5 5 6 8 12 15 17 17 15 15 15 16 15 14 13 12 12 12 11 10 11 11
Wind_Direction
238 236 219 242 233 191 202 217 227 253 232 258 263 255 256 256 274 297 298 250 181 163 130 107 222 221 259 356 357 0 61 122 153 145 144 147 119 114 107 99 99 96 79 63
269 258 244 260 261 230 231 233 242 263 269 259 255 239 253 255 265 276 271 226 189 187 189 184 198 223 275 22 2 16 61 119 179 165 153 125 125 119 105 97 87 74 64 62
260 286 320 274 249 227 220 217 214 234 252 242 240 234 244 251 253 255 240 208 194 194 195 198 200 201 203 96 325 106 107 120 144 145 133 106 126 130 128 113 99 78 68 77
220 53 241 253 252 221 224 250 225 246 257 220 228 243 242 238 239 248 235 222 217 207 197 192 193 210 275 335 68 100 92 93 98 95 106 116 124 137 143 126 110 88 60 63
184 214 265 284 264 213 222 270 241 232 258 233 189 315 282 240 221 232 213 207 203 192 182 183 206 235 267 275 202 154 121 98 100 107 95 94 109 145 145 126 109 86 59 62
211 246 263 249 253 168 123 283 242 219 251 193 134 259 272 262 219 223 194 188 183 180 172 182 213 231 241 227 194 172 158 130 120 113 118 140 144 146 104 117 117 102 83 68
233 248 270 266 290 122 198 269 282 237 243 169 187 224 242 251 215 222 183 183 169 167 178 197 203 187 201 200 193 168 148 127 122 135 131 144 133 97 111 119 112 100 88 68
266 277 279 267 349 222 248 270 275 275 251 208 223 239 243 244 233 206 181 178 171 170 188 199 199 188 193 196 191 159 147 159 167 148 136 136 121 106 117 120 117 114 107 90
231 243 255 259 262 263 244 257 276 274 266 233 228 236 234 233 229 214 193 180 178 178 179 194 201 194 191 199 169 156 163 174 163 121 115 108 113 127 130 139 143 144 134 133
264 264 261 275 279 274 270 258 263 255 253 226 226 236 221 214 217 202 193 185 178 174 178 198 205 203 206 182 161 156 162 162 147 142 143 113 107 131 146 157 153 151 153 154
258 281 290 287 269 260 266 262 260 266 248 235 233 236 218 201 205 200 194 184 178 184 190 207 203 201 196 179 167 167 167 165 155 141 138 119 103 126 168 169 174 170 168 163
290 289 290 280 278 271 256 263 267 258 255 243 228 234 210 202 200 190 191 182 185 192 199 211 203 199 187 175 170 169 172 174 165 148 136 132 130 92 50 95 140 153 152 150
296 305 294 282 280 274 267 264 264 255 246 251 236 226 209 200 193 188 189 186 197 201 204 203 198 196 186 177 173 175 176 174 169 161 154 154 148 140 122 84 83 118 143 142
324 331 320 322 323 317 308 287 275 263 247 235 236 220 212 199 182 185 193 197 201 201 198 195 192 194 184 176 175 176 173 169 170 172 169 172 171 165 153 146 140 123 125 135
338 342 319 324 342 353 352 343 318 295 280 263 238 216 205 195 190 196 199 193 187 192 192 190 193 197 178 175 177 177 175 175 175 178 180 177 175 171 167 165 165 161 165 182
339 335 335 340 345 357 3 1 357 344 329 307 282 238 215 206 202 198 190 176 179 193 196 190 195 195 177 178 180 180 183 178 177 181 182 181 181 178 177 180 184 189 200 197
349 334 335 341 333 342 357 358 1 5 359 353 338 313 257 228 211 191 190 187 194 199 192 191 194 186 180 179 180 182 184 185 184 188 193 193 194 197 196 192 197 206 223 212
317 321 321 330 323 327 334 337 348 353 354 350 341 330 322 255 218 202 195 189 187 188 188 189 186 184 183 182 183 183 184 187 191 198 199 198 200 202 202 204 209 215 230 227
326 322 320 324 321 317 310 307 321 317 321 338 332 332 329 311 257 229 187 171 180 193 196 183 181 183 186 186 181 184 187 190 194 200 201 202 202 200 200 205 213 218 226 218
310 313 319 318 317 317 307 288 271 270 287 294 329 348 339 333 326 316 160 194 199 204 193 182 179 186 188 186 183 189 193 194 196 201 204 204 207 207 210 215 219 223 223 216
300 306 309 311 312 314 312 308 301 284 256 239 243 32 352 323 311 305 221 207 227 226 192 181 182 187 188 187 186 196 199 198 199 201 202 205 207 211 215 217 218 219 219 220
300 304 306 309 311 311 310 310 301 286 234 208 220 210 85 336 321 322 308 262 247 208 195 190 194 191 188 186 191 199 204 207 206 204 202 203 206 207 211 213 215 218 218 218
311 314 313 311 306 303 302 301 299 294 283 257 235 231 214 186 261 303 307 288 247 200 198 202 199 193 186 185 193 197 200 204 208 211 208 202 204 207 208 209 211 214 216 218
318 321 318 313 305 300 297 300 302 301 300 295 281 265 255 236 221 241 272 278 258 210 199 206 204 195 189 193 197 202 201 201 203 208 210 207 203 202 204 205 206 208 212 216
293 301 309 313 313 308 300 299 303 299 298 306 305 295 281 260 240 245 257 265 254 221 203 214 214 201 197 202 201 202 203 203 204 204 205 202 201 202 201 202 205 206 208 212
280 288 294 294 294 293 296 295 292 296 305 304 301 299 295 286 268 263 268 267 264 225 204 218 218 205 205 204 206 208 204 206 202 201 201 199 197 199 203 201 202 206 209 211
291 294 301 298 294 293 292 290 288 296 304 299 292 290 291 288 282 275 280 284 277 261 235 230 230 216 210 206 207 212 209 207 208 204 201 194 190 189 196 199 203 206 209 212
Height
1511 1509 1509 1507 1506 1511 1516 1511 1514 1500 1503 1489 1482 1480 1479 1479 1477 1476 1475 1474 1475 1476 1475 1474 1474 1476 1479 1473 1473 1473 1472 1472 1475 1477 1479 1481 1482 1482 1484 1486 1486 1487 1486 1487
1510 1504 1505 1506 1502 1502 1506 1506 1504 1500 1493 1476 1473 1474 1474 1473 1473 1472 1473 1473 1472 1474 1474 1474 1473 1474 1474 1471 1472 1472 1473 1476 1477 1478 1480 1482 1485 1486 1488 1488 1489 1488 1488 1491
1514 1505 1506 1511 1496 1493 1494 1493 1493 1494 1481 1472 1471 1470 1469 1468 1468 1468 1469 1469 1469 1472 1473 1473 1473 1474 1474 1472 1474 1475 1475 1476 1476 1476 1478 1481 1485 1488 1489 1490 1491 1490 1492 1494
1515 1511 1520 1496 1484 1483 1485 1481 1477 1475 1472 1468 1466 1466 1464 1464 1464 1464 1465 1465 1466 1468 1469 1470 1470 1471 1471 1471 1472 1473 1475 1475 1476 1477 1479 1481 1483 1485 1488 1489 1491 1493 1494 1495
1515 1514 1501 1488 1477 1477 1480 1476 1467 1469 1465 1463 1464 1464 1461 1460 1460 1460 1461 1462 1464 1465 1467 1468 1468 1468 1468 1469 1471 1473 1475 1476 1478 1478 1479 1480 1483 1484 1487 1489 1490 1492 1494 1496
1514 1513 1505 1484 1469 1468 1475 1478 1462 1460 1458 1459 1462 1467 1459 1456 1455 1456 1456 1458 1460 1462 1463 1465 1465 1466 1465 1466 1469 1471 1473 1476 1477 1478 1479 1481 1483 1485 1486 1488 1489 1492 1495 1497
1511 1509 1493 1477 1470 1471 1481 1475 1459 1457 1455 1456 1456 1454 1453 1452 1452 1453 1453 1454 1456 1459 1460 1461 1462 1464 1464 1466 1468 1470 1473 1475 1476 1477 1479 1481 1482 1484 1486 1487 1489 1492 1495 1497
1506 1505 1498 1472 1471 1476 1470 1461 1457 1455 1452 1449 1447 1447 1448 1449 1449 1449 1450 1451 1453 1455 1456 1459 1461 1462 1464 1465 1466 1469 1471 1473 1475 1476 1478 1480 1482 1483 1485 1486 1489 1492 1495 1497
1494 1490 1475 1468 1465 1462 1459 1456 1453 1450 1445 1443 1442 1442 1442 1444 1445 1445 1446 1447 1449 1451 1453 1455 1458 1460 1462 1463 1465 1467 1469 1471 1473 1475 1477 1479 1480 1482 1484 1487 1490 1492 1494 1496
1482 1474 1466 1463 1459 1455 1451 1448 1446 1443 1439 1437 1436 1435 1436 1437 1439 1440 1441 1443 1446 1447 1449 1452 1455 1457 1459 1461 1463 1464 1466 1469 1471 1474 1476 1478 1479 1481 1484 1486 1487 1489 1491 1494
1474 1464 1459 1455 1451 1447 1442 1440 1438 1436 1434 1431 1429 1427 1428 1429 1432 1434 1436 1439 1441 1443 1445 1448 1451 1453 1455 1457 1460 1461 1463 1466 1469 1471 1473 1475 1476 1479 1482 1483 1485 1486 1489 1491
1464 1456 1452 1447 1440 1437 1435 1431 1429 1428 1426 1425 1423 1420 1420 1423 1426 1428 1430 1433 1436 1438 1441 1444 1447 1449 1451 1453 1455 1458 1460 1462 1465 1468 1470 1472 1474 1477 1480 1482 1484 1486 1488 1490
1460 1452 1446 1439 1433 1428 1426 1423 1421 1419 1418 1417 1415 1414 1412 1414 1418 1421 1424 1427 1430 1432 1434 1438 1441 1444 1447 1449 1451 1454 1456 1458 1461 1464 1468 1470 1472 1475 1477 1480 1482 1485 1487 1490
1458 1451 1442 1436 1432 1425 1420 1416 1413 1410 1408 1407 1406 1405 1403 1403 1408 1413 1416 1419 1423 1426 1429 1432 1435 1438 1442 1445 1448 1450 1453 1455 1457 1460 1464 1468 1471 1473 1476 1478 1481 1484 1486 1488
1455 1451 1447 1441 1434 1426 1418 1411 1407 1402 1399 1396 1395 1394 1393 1393 1397 1402 1406 1411 1416 1419 1423 1426 1429 1433 1436 1440 1443 1447 1450 1453 1455 1458 1462 1465 1468 1471 1474 1477 1479 1482 1484 1486
1454 1450 1444 1436 1431 1425 1417 1412 1407 1400 1395 1393 1389 1387 1385 1385 1389 1394 1397 1402 1406 1410 1415 1418 1422 1427 1431 1435 1439 1443 1447 1451 1454 1457 1461 1464 1466 1469 1472 1475 1478 1480 1482 1484
1456 1452 1443 1434 1430 1424 1418 1414 1411 1405 1399 1394 1389 1385 1381 1384 1383 1386 1389 1393 1396 1402 1407 1411 1415 1421 1425 1429 1433 1437 1442 1447 1451 1455 1459 1462 1465 1468 1470 1473 1475 1478 1479 1481
1463 1455 1446 1436 1430 1423 1416 1413 1409 1406 1400 1391 1387 1383 1377 1377 1375 1377 1381 1384 1387 1392 1398 1404 1409 1415 1419 1424 1428 1432 1437 1442 1447 1451 1454 1458 1461 1464 1467 1469 1472 1474 1476 1478
1457 1451 1443 1433 1426 1418 1412 1410 1406 1402 1398 1391 1386 1378 1373 1367 1368 1371 1372 1374 1378 1382 1388 1395 1402 1408 1413 1418 1423 1427 1432 1437 1441 1445 1449 1452 1456 1459 1462 1465 1467 1469 1471 1473
1453 1448 1438 1429 1422 1413 1406 1403 1402 1397 1392 1388 1380 1376 1370 1364 1364 1366 1369 1373 1374 1376 1381 1387 1393 1399 1405 1411 1417 1422 1426 1430 1434 1438 1442 1446 1449 1453 1456 1459 1462 1464 1466 1467
1443 1437 1429 1422 1415 1406 1400 1397 1396 1391 1384 1381 1378 1373 1368 1366 1365 1363 1365 1368 1372 1374 1376 1380 1385 1391 1396 1403 1409 1414 1419 1423 1427 1431 1435 1438 1442 1446 1449 1452 1455 1457 1459 1461
1433 1427 1420 1413 1404 1396 1391 1389 1387 1384 1378 1375 1375 1371 1364 1362 1355 1351 1353 1357 1363 1367 1371 1375 1378 1384 1389 1395 1400 1405 1410 1415 1420 1424 1427 1431 1434 1437 1441 1445 1447 1450 1452 1453
1424 1417 1409 1402 1395 1389 1384 1380 1376 1374 1370 1367 1366 1366 1362 1357 1355 1353 1352 1354 1357 1358 1361 1364 1369 1375 1380 1387 1391 1396 1401 1407 1412 1416 1419 1423 1427 1430 1433 1437 1440 1442 1444 1446
1418 1410 1402 1392 1385 1380 1375 1370 1367 1365 1363 1359 1358 1357 1355 1353 1352 1354 1355 1351 1350 1349 1350 1354 1359 1366 1372 1378 1385 1389 1393 1398 1402 1407 1411 1414 1418 1423 1426 1429 1432 1434 1436 1439
1410 1403 1394 1385 1379 1373 1367 1362 1358 1356 1354 1351 1347 1346 1346 1346 1347 1347 1348 1348 1348 1345 1345 1349 1352 1357 1362 1367 1372 1379 1384 1388 1392 1397 1402 1405 1409 1413 1418 1421 1424 1427 1429 1431
1401 1395 1388 1380 1373 1366 1359 1355 1351 1348 1345 1342 1339 1337 1337 1337 1338 1339 1340 1341 1339 1338 1341 1345 1348 1350 1353 1357 1362 1367 1373 1378 1383 1386 1391 1395 1399 1404 1408 1412 1415 1418 1421 1423
1394 1387 1381 1373 1366 1360 1354 1348 1344 1341 1338 1334 1331 1329 1329 1330 1331 1332 1333 1332 1331 1334 1337 1341 1344 1345 1347 1349 1352 1357 1360 1364 1370 1375 1379 1384 1389 1395 1400 1403 1406 1409 1411 1414